Погода в Ямище

Россия / Псковская область     56°08′48″N   31°16′40″E
темп.,
°C
ветер,
м/с
пор.,
м/с
влажн.,
%
обл.,
%
осадки,
мм/ч
давл.,
гПа
погр.,
м
29 мая, вс
вс2900:00+5юз289731 0.1 1005169
03:00+3юз279723 0.1 1006135
06:00+4юз279610 0.0 1007209
09:00+9юз357819 0.0 1008687
12:00+14зюз454779 0.3 10092039
15:00+13зюз454991 0.4 10101537
18:00+13з2560100 0.0 1012445
21:00+9ю227510 0.0 101315
30 мая, пн
пн3000:00+8ююз268579 0.0 1015155
03:00+8ююз259243 0.0 1016144
06:00+8ююв1488100 0.0 1017157
09:00+11ююв367798 0.0 1017373
12:00+16ю4562100 0.4 10171436
15:00+17ююв3558100 0.9 10161394
18:00+13ю3985100 1.0 1016654
21:00+11юв31189100 1.1 1015597
31 мая, вт
вт3100:00+10вюв51393100 0.3 1014680
03:00+10юв41098100 0.9 1014554
06:00+10ю389899 0.1 1014587
09:00+12ююз477455 0.1 1015733
12:00+17юз475084 0.0 10151333
15:00+19юз5742100 0.0 10152357
18:00+16юз256096 0.1 1016840
21:00+12ююз228580 0.4 101727
1 июня, ср
ср100:00+9з23952 0.0 101846
03:00+7з11950 0.0 102010
06:00+9ююз12890 0.0 102059
09:00+15ю2464100 0.0 1020635
12:00+19ююз354464 0.0 10201831
15:00+20ю353897 0.0 10192264
18:00+20ю3547100 0.0 10182058
21:00+14ююв2673100 0.0 1018109
2 июня, чт
чт200:00+13юв31079100 0.0 1016261
03:00+11ю31194100 0.9 1015439
06:00+12ююв4119770 2.7 1014605
09:00+13ююз498910 2.8 1014873
12:00+15юз46659 0.1 1015986
15:00+19ююз47474 0.1 10141706
18:00+12юз399599 2.1 1014378
21:00+12ю399748 2.8 1013330